GW2231 Weather Reports


time (UTC)temp
C
wind
direction
speed
KPH
gust
KPH
rain 1hr
cm
rain 24hr
cm
rain mn
cm
humidity
%
barometer
mb
20260505021502 20 188 1.6 3.2 0.00 0.99 0.99 65 1001.6
20260505013503 21 198 1.6 4.8 0.00 0.99 0.99 62 1001.3
20260505012005 22 195 0.0 3.2 0.00 0.99 0.99 61 1001.2
20260505011004 22 192 0.0 3.2 0.00 0.99 0.99 60 1000.9
20260505010504 22 101 0.0 4.8 0.00 0.99 0.99 59 1000.9
20260505010005 22 93 0.0 4.8 0.00 0.99 0.99 58 1000.8
20260505004005 23 100 0.0 11.3 0.00 0.99 0.99 57 1000.7
20260505002505 23 90 1.6 4.8 0.00 0.99 0.99 56 1000.6
20260505000504 24 62 1.6 8.0 0.00 0.99 0.99 55 1000.4
20260505000003 24 154 3.2 8.0 0.00 0.99 0.99 55 1000.4
20260504235502 25 284 1.6 16.1 0.00 0.99 0.99 55 1000.5
20260504235004 25 280 3.2 16.1 0.00 0.99 0.99 54 1000.5
20260504234504 25 266 1.6 6.4 0.00 0.99 0.99 55 1000.5
20260504232505 25 187 3.2 9.7 0.00 0.99 0.99 52 1000.4
20260504230004 25 177 1.6 4.8 0.00 0.99 0.99 54 1000.9
20260504224504 25 109 1.6 11.3 0.00 0.99 0.99 57 1001.0
20260504224004 25 186 0.0 8.0 0.00 0.99 0.99 55 1001.1
20260504223005 25 195 1.6 9.7 0.00 0.99 0.99 55 1001.1
20260504220006 24 168 3.2 9.7 0.00 0.99 0.99 64 1001.3
20260504215504 24 176 1.6 9.7 0.00 0.99 0.99 67 1001.3
20260504215004 23 169 1.6 9.7 0.00 0.99 0.99 71 1001.4
20260504213504 21 140 1.6 6.4 0.00 0.99 0.99 78 1001.6
20260504205503 17 130 1.6 6.4 0.03 0.99 0.99 95 1002.0
20260504203004 16 123 0.0 0.0 0.99 0.99 0.99 91 1002.9
20260504202501 16 194 0.0 6.4 0.99 0.99 0.99 90 1002.8
20260504201504 16 88 1.6 12.9 0.99 0.99 0.99 89 1002.8
20260504201002 16 196 3.2 9.7 0.99 0.99 0.99 90 1002.7
20260504200504 16 274 1.6 12.9 0.99 0.99 0.99 90 1003.1
20260504200006 16 51 0.0 14.5 0.99 0.99 0.99 89 1003.2
20260504194504 17 123 3.2 11.3 0.58 0.58 0.58 86 1002.0
20260504194006 17 101 1.6 6.4 0.23 0.23 0.23 83 1004.0
20260504193004 18 12 1.6 4.8 0.00 0.00 0.00 76 1004.4
20260504192004 18 15 1.6 3.2 0.00 0.00 0.00 73 1004.0
20260504191504 18 33 0.0 4.8 0.00 0.00 0.00 71 1004.0
20260504191000 19 29 1.6 4.8 0.00 0.00 0.00 71 1004.1
20260504190504 18 360 3.2 6.4 0.00 0.00 0.00 70 1004.1
20260504190004 18 5 3.2 6.4 0.00 0.00 0.00 72 1004.0
20260504185504 18 5 3.2 4.8 0.00 0.00 0.00 73 1004.1
20260504184500 19 13 0.0 0.0 0.00 0.00 0.00 73 1003.8
20260504184002 19 72 0.0 0.0 0.00 0.00 0.00 72 1003.8
20260504182002 20 72 0.0 0.0 0.00 0.00 0.00 69 1004.0
20260504181504 20 72 0.0 0.0 0.00 0.00 0.00 69 1003.9
20260504175504 20 162 0.0 3.2 0.00 0.00 0.00 68 1003.9
20260504172504 19 122 1.6 6.4 0.00 0.00 0.00 68 1004.0
20260504170504 19 184 0.0 4.8 0.00 0.00 0.00 70 1004.7
20260504080959 15 82 0.0 0.0 0.00 0.00 0.00 74 1006.6
20260504045959 16 181 0.0 3.2 0.00 0.00 0.00 66 1006.2
20260504045500 16 167 0.0 3.2 0.00 0.00 0.00 66 1006.2
20260504045000 16 175 0.0 3.2 0.00 0.00 0.00 66 1006.4
20260504044503 16 168 0.0 3.2 0.00 0.00 0.00 65 1006.6
20260504042459 16 210 0.0 6.4 0.00 0.00 0.00 66 1007.1
20260504041959 16 238 0.0 8.0 0.00 0.00 0.00 65 1007.3
20260504041500 16 197 1.6 4.8 0.00 0.00 0.00 64 1007.5
20260504041000 16 194 1.6 4.8 0.00 0.00 0.00 65 1007.5
20260504033958 16 180 0.0 3.2 0.00 0.00 0.00 64 1007.6
20260504031001 17 232 0.0 1.6 0.00 0.00 0.00 61 1007.6
20260504030002 17 196 0.0 8.0 0.00 0.00 0.00 61 1007.7
20260504025502 17 217 0.0 8.0 0.00 0.00 0.00 60 1007.7
20260504024000 17 149 1.6 8.0 0.00 0.00 0.00 59 1007.7
20260504023500 17 327 1.6 8.0 0.00 0.00 0.00 59 1007.7